Regional Weather Roundup
Issued by NWS Northern Indiana

Home | Current Version | Previous Version | Text Only | Print | Product List | Glossary On
Versions: 1 2 3 4 5 6 7 8 9 10 11 12 13 14 15 16 17 18 19 20 21 22 23 24 25 26 27 28 29 30 31 32 33 34 35 36 37 38 39 40 41 42 43 44 45 46 47 48 49 50
000
ASUS43 KIWX 271400
RWRIWX

KIWX WEATHER ROUNDUP
NATIONAL WEATHER SERVICE NORTHERN INDIANA
1000 AM EDT WED MAY 27 2015

NOTE: "FAIR" INDICATES FEW OR NO CLOUDS BELOW 12,000 FEET WITH NO
SIGNIFICANT WEATHER AND/OR OBSTRUCTIONS TO VISIBILITY.

* THESE STATIONS ARE NOT UNDER NWS QUALITY CONTROL. THEY ALSO MAY NOT
  REPORT WEATHER SUCH AS PRECIPITATION OR FOG.

INZ001>027-271500-
NORTHERN INDIANA

CITY           SKY/WX    TMP DP  RH WIND       PRES   REMARKS
SOUTH BEND     PTSUNNY   71  62  73 SW17G25   29.98R
ELKHART*       MOSUNNY   72  63  73 SW12G17   29.99R
GOSHEN         MOSUNNY   72  62  71 SW22G29   29.99R
MONTICELLO*    CLOUDY    71  65  82 SW15G24   30.01S
WARSAW*        MOSUNNY   70  63  78 SW14G21   30.01S
ANGOLA*        PTSUNNY   72  64  78 W14       29.99S
FORT WAYNE     PTSUNNY   72  63  73 SW18      30.03R
PERU/GRISSOM   MOSUNNY   74  64  72 SW18      30.01F

$$
INZ028>050-271500-
CENTRAL INDIANA

CITY           SKY/WX    TMP DP  RH WIND       PRES   REMARKS
LAFAYETTE      PTSUNNY   72  64  76 SW9       30.02S
KOKOMO*        PTSUNNY   73  63  68 SW20      30.04S
MUNCIE*        MOSUNNY   72  63  73 SW12G20   30.07R
INDIANAPOLIS   MOSUNNY   73  62  68 SW16      30.06S

$$
MIZ043>046-050>051-056>058-064>065-071>073-077>080-271500-
SOUTHWEST LOWER MICHIGAN

CITY           SKY/WX    TMP DP  RH WIND       PRES   REMARKS
BATTLE CREEK   MOSUNNY   72  61  68 SW18      29.96R
BENTON HARBOR  SUNNY     69  62  78 SW22G31   29.95R
COLDWATER*     PTSUNNY   70  61  73 SW16G23   29.98R
HILLSDALE*     MOSUNNY   72  65  78 SW12      29.99S
HOLLAND        MOSUNNY   69  61  75 SW20G32   29.94R
GRAND RAPIDS   PTSUNNY   71  61  70 SW23G31   29.91R
KALAMAZOO      MOSUNNY   72  60  66 SW14G28   29.96R
STURGIS*       MOSUNNY   72  63  73 SW13G25   29.98R
THREE RIVERS*  FAIR      71  62  72 SW10G16   29.97S

$$
OHZ001>008-015>018-024>025-271500-
NORTHWEST OHIO

CITY           SKY/WX    TMP DP  RH WIND       PRES   REMARKS
DEFIANCE       SUNNY     74  63  68 SW15G22   30.01R
FINDLAY        MOSUNNY   74  64  71 SW15      30.04S
TOLEDO EXPRESS SUNNY     73  62  68 SW16      30.00F
TOLEDO METCALF SUNNY     73  62  68 SW17G25   30.01F
LIMA           MOSUNNY   71  63  75 SW17G23   30.06S

$$
AND FOR LAKE MICHIGAN COASTAL AND OPEN LAKE BUOY OBSERVATIONS

STATION/POSITION TEMP    WIND        PRES    VSBY  WAVE
                 AIR SEA DIR/SP/G                  HT/PER
                 (F)     (DEG/KT/KT) (MB)    (MI)  (FT/S)
CALUMET HARBOR    69     220/  8/ 19   N/A
MICHIGAN CITY     67     200/ 16/ 20   N/A
BURNS HARBOR      69     220/ 15/ 21 1014.9F
SAINT JOSEPH      64     180/ 13/ 20 1014.9R
SOUTH LAKE BUOY   47 38  210/ 14/ 16 1013.6R         1/ 3
4 MI NW BRIDGMAN  60 55  240/ 12/ 12   N/A           2/ 4
MICHIGAN CITY     60 52  240/ 10/ 12   N/A           1/ 3

$$
&&


USA.gov is the U.S. government's official web portal to all federal, state and local government web resources and services.